Time,TemperatureF,DewpointF,PressureIn,WindDirection,WindDirectionDegrees,WindSpeedMPH,WindSpeedGustMPH,Humidity,HourlyPrecipIn,Conditions,Clouds,dailyrainin,SoftwareType,DateUTC
2013-01-24 00:14:00,35.1,10.0,30.35,ESE,119,0.0,0.0,36,0.00,,,0.00,weatherlink.com 1.10,2013-01-24 07:14:00,
2013-01-24 00:29:00,35.1,13.0,30.35,ESE,118,0.0,0.0,41,0.00,,,0.00,weatherlink.com 1.10,2013-01-24 07:29:00,
2013-01-24 00:43:00,35.6,10.0,30.35,ESE,118,0.0,0.0,35,0.00,,,0.00,weatherlink.com 1.10,2013-01-24 07:43:00,
2013-01-24 00:59:00,34.0,9.0,30.35,ESE,119,0.0,0.0,36,0.00,,,0.00,weatherlink.com 1.10,2013-01-24 07:59:00,
2013-01-24 01:14:00,33.4,10.0,30.35,NNE,18,0.0,2.0,37,0.00,,,0.00,weatherlink.com 1.10,2013-01-24 08:14:00,
2013-01-24 01:29:00,34.6,11.0,30.35,NNE,18,0.0,0.0,38,0.00,,,0.00,weatherlink.com 1.10,2013-01-24 08:29:00,
2013-01-24 01:44:00,31.8,9.0,30.35,NNE,18,0.0,0.0,39,0.00,,,0.00,weatherlink.com 1.10,2013-01-24 08:44:00,
2013-01-24 01:59:00,33.3,13.0,30.36,NNE,18,0.0,0.0,43,0.00,,,0.00,weatherlink.com 1.10,2013-01-24 08:59:00,
2013-01-24 02:14:00,31.8,11.0,30.36,NNE,18,0.0,0.0,42,0.00,,,0.00,weatherlink.com 1.10,2013-01-24 09:14:00,
2013-01-24 02:29:00,30.3,10.0,30.36,NNE,18,0.0,1.0,42,0.00,,,0.00,weatherlink.com 1.10,2013-01-24 09:29:00,
2013-01-24 02:44:00,33.1,15.0,30.37,NNE,18,0.0,0.0,47,0.00,,,0.00,weatherlink.com 1.10,2013-01-24 09:44:00,
2013-01-24 02:59:00,34.0,15.0,30.38,NNE,18,0.0,0.0,45,0.00,,,0.00,weatherlink.com 1.10,2013-01-24 09:59:00,
2013-01-24 03:14:00,33.0,13.0,30.38,NNE,17,0.0,0.0,44,0.00,,,0.00,weatherlink.com 1.10,2013-01-24 10:14:00,
2013-01-24 03:30:00,31.9,13.0,30.38,NNE,18,0.0,0.0,46,0.00,,,0.00,weatherlink.com 1.10,2013-01-24 10:30:00,
2013-01-24 03:44:00,32.5,11.0,30.37,NNE,17,0.0,0.0,41,0.00,,,0.00,weatherlink.com 1.10,2013-01-24 10:44:00,
2013-01-24 03:59:00,31.7,12.0,30.37,NNE,18,0.0,0.0,44,0.00,,,0.00,weatherlink.com 1.10,2013-01-24 10:59:00,
2013-01-24 04:14:00,29.8,10.0,30.36,NNE,18,0.0,0.0,44,0.00,,,0.00,weatherlink.com 1.10,2013-01-24 11:14:00,
2013-01-24 04:29:00,28.3,10.0,30.35,NNE,18,0.0,0.0,46,0.00,,,0.00,weatherlink.com 1.10,2013-01-24 11:29:00,
2013-01-24 04:44:00,27.1,9.0,30.36,NNW,340,3.0,3.0,47,0.00,,,0.00,weatherlink.com 1.10,2013-01-24 11:44:00,
2013-01-24 04:59:00,27.6,11.0,30.36,North,357,0.0,1.0,49,0.00,,,0.00,weatherlink.com 1.10,2013-01-24 11:59:00,
2013-01-24 05:14:00,27.2,9.0,30.37,North,357,0.0,1.0,47,0.00,,,0.00,weatherlink.com 1.10,2013-01-24 12:14:00,
2013-01-24 05:29:00,27.6,10.0,30.36,NE,40,0.0,1.0,47,0.00,,,0.00,weatherlink.com 1.10,2013-01-24 12:29:00,
2013-01-24 05:44:00,28.7,12.0,30.37,NE,43,0.0,1.0,50,0.00,,,0.00,weatherlink.com 1.10,2013-01-24 12:44:00,
2013-01-24 05:59:00,29.4,12.0,30.37,NE,43,0.0,0.0,48,0.00,,,0.00,weatherlink.com 1.10,2013-01-24 12:59:00,
2013-01-24 06:14:00,28.1,11.0,30.37,NE,43,0.0,0.0,48,0.00,,,0.00,weatherlink.com 1.10,2013-01-24 13:14:00,
2013-01-24 06:29:00,28.2,11.0,30.38,NNE,27,0.0,0.0,48,0.00,,,0.00,weatherlink.com 1.10,2013-01-24 13:29:00,
2013-01-24 06:44:00,28.5,10.0,30.38,NNE,12,0.0,0.0,47,0.00,,,0.00,weatherlink.com 1.10,2013-01-24 13:44:00,
2013-01-24 07:00:00,27.1,10.0,30.39,North,359,1.0,2.0,48,0.00,,,0.00,weatherlink.com 1.10,2013-01-24 14:00:00,
2013-01-24 07:14:00,27.0,10.0,30.37,NNE,15,1.0,2.0,48,0.00,,,0.00,weatherlink.com 1.10,2013-01-24 14:14:00,
2013-01-24 07:30:00,27.0,10.0,30.39,North,354,0.0,4.0,48,0.00,,,0.00,weatherlink.com 1.10,2013-01-24 14:30:00,
2013-01-24 07:44:00,28.1,10.0,30.38,North,1,0.0,2.0,47,0.00,,,0.00,weatherlink.com 1.10,2013-01-24 14:44:00,
2013-01-24 07:59:00,28.8,10.0,30.37,North,352,1.0,1.0,46,0.00,,,0.00,weatherlink.com 1.10,2013-01-24 14:59:00,
2013-01-24 08:19:00,28.2,10.0,30.38,North,353,0.0,1.0,47,0.00,,,0.00,weatherlink.com 1.10,2013-01-24 15:19:00,
2013-01-24 08:30:00,32.2,12.0,30.39,North,351,0.0,1.0,43,0.00,,,0.00,weatherlink.com 1.10,2013-01-24 15:30:00,
2013-01-24 08:45:00,32.8,11.0,30.38,NNW,347,0.0,3.0,41,0.00,,,0.00,weatherlink.com 1.10,2013-01-24 15:45:00,
2013-01-24 08:59:00,34.2,11.0,30.38,North,356,2.0,3.0,38,0.00,,,0.00,weatherlink.com 1.10,2013-01-24 15:59:00,
2013-01-24 09:15:00,34.4,11.0,30.38,NW,321,0.0,2.0,38,0.00,,,0.00,weatherlink.com 1.10,2013-01-24 16:15:00,
2013-01-24 09:30:00,35.7,12.0,30.38,NNE,30,1.0,2.0,37,0.00,,,0.00,weatherlink.com 1.10,2013-01-24 16:30:00,
2013-01-24 09:45:00,37.4,12.0,30.38,NNW,335,1.0,2.0,35,0.00,,,0.00,weatherlink.com 1.10,2013-01-24 16:45:00,
2013-01-24 09:59:00,39.3,12.0,30.38,NNE,13,1.0,3.0,33,0.00,,,0.00,weatherlink.com 1.10,2013-01-24 16:59:00,
2013-01-24 10:15:00,42.5,15.0,30.37,West,262,0.0,1.0,33,0.00,,,0.00,weatherlink.com 1.10,2013-01-24 17:15:00,
2013-01-24 10:30:00,44.5,13.0,30.38,NNW,328,0.0,2.0,28,0.00,,,0.00,weatherlink.com 1.10,2013-01-24 17:30:00,
2013-01-24 10:45:00,45.6,14.0,30.36,NNE,23,0.0,3.0,28,0.00,,,0.00,weatherlink.com 1.10,2013-01-24 17:45:00,
2013-01-24 11:00:00,48.4,13.0,30.36,South,173,2.0,3.0,24,0.00,,,0.00,weatherlink.com 1.10,2013-01-24 18:00:00,
2013-01-24 11:15:00,49.1,13.0,30.35,West,268,2.0,3.0,23,0.00,,,0.00,weatherlink.com 1.10,2013-01-24 18:15:00,
2013-01-24 11:30:00,50.1,12.0,30.34,SSW,193,3.0,3.0,22,0.00,,,0.00,weatherlink.com 1.10,2013-01-24 18:30:00,
2013-01-24 11:45:00,52.2,12.0,30.33,SW,219,1.0,3.0,20,0.00,,,0.00,weatherlink.com 1.10,2013-01-24 18:45:00,
2013-01-24 12:00:00,53.4,12.0,30.32,SW,224,1.0,3.0,19,0.00,,,0.00,weatherlink.com 1.10,2013-01-24 19:00:00,
2013-01-24 12:15:00,54.9,12.0,30.31,SSE,160,1.0,3.0,18,0.00,,,0.00,weatherlink.com 1.10,2013-01-24 19:15:00,
2013-01-24 12:30:00,55.9,11.0,30.29,WSW,249,1.0,3.0,17,0.00,,,0.00,weatherlink.com 1.10,2013-01-24 19:30:00,
2013-01-24 12:45:00,57.7,12.0,30.27,WSW,249,1.0,3.0,16,0.00,,,0.00,weatherlink.com 1.10,2013-01-24 19:45:00,
2013-01-24 13:00:00,58.8,11.0,30.26,WSW,240,1.0,3.0,15,0.00,,,0.00,weatherlink.com 1.10,2013-01-24 20:00:00,
2013-01-24 13:16:00,60.0,12.0,30.25,SE,142,1.0,4.0,15,0.00,,,0.00,weatherlink.com 1.10,2013-01-24 20:16:00,
2013-01-24 13:30:00,59.8,13.0,30.23,ESE,104,0.0,4.0,16,0.00,,,0.00,weatherlink.com 1.10,2013-01-24 20:30:00,
2013-01-24 13:45:00,61.1,13.0,30.22,WNW,302,0.0,4.0,15,0.00,,,0.00,weatherlink.com 1.10,2013-01-24 20:45:00,
2013-01-24 14:01:00,60.0,13.0,30.21,SE,130,1.0,3.0,16,0.00,,,0.00,weatherlink.com 1.10,2013-01-24 21:01:00,
2013-01-24 14:16:00,60.6,14.0,30.20,SW,222,2.0,2.0,16,0.00,,,0.00,weatherlink.com 1.10,2013-01-24 21:16:00,
2013-01-24 14:31:00,61.9,14.0,30.19,ESE,117,4.0,4.0,15,0.00,,,0.00,weatherlink.com 1.10,2013-01-24 21:31:00,
2013-01-24 14:46:00,62.2,14.0,30.19,SE,141,3.0,4.0,15,0.00,,,0.00,weatherlink.com 1.10,2013-01-24 21:46:00,
2013-01-24 15:01:00,63.8,15.0,30.18,East,96,2.0,5.0,15,0.00,,,0.00,weatherlink.com 1.10,2013-01-24 22:01:00,
2013-01-24 15:16:00,63.4,16.0,30.18,SE,146,2.0,5.0,16,0.00,,,0.00,weatherlink.com 1.10,2013-01-24 22:16:00,
2013-01-24 15:31:00,65.2,16.0,30.18,SSE,148,1.0,4.0,15,0.00,,,0.00,weatherlink.com 1.10,2013-01-24 22:31:00,
2013-01-24 15:46:00,64.3,17.0,30.18,SW,228,2.0,4.0,16,0.00,,,0.00,weatherlink.com 1.10,2013-01-24 22:46:00,
2013-01-24 16:01:00,62.6,16.0,30.18,South,172,0.0,5.0,16,0.00,,,0.00,weatherlink.com 1.10,2013-01-24 23:01:00,
2013-01-24 16:16:00,60.9,14.0,30.19,SW,226,4.0,6.0,16,0.00,,,0.00,weatherlink.com 1.10,2013-01-24 23:16:00,
2013-01-24 16:31:00,59.8,15.0,30.19,WSW,240,0.0,6.0,17,0.00,,,0.00,weatherlink.com 1.10,2013-01-24 23:31:00,
2013-01-24 16:46:00,59.0,15.0,30.20,SW,231,7.0,7.0,18,0.00,,,0.00,weatherlink.com 1.10,2013-01-24 23:46:00,
2013-01-24 17:01:00,58.2,15.0,30.20,SSW,213,1.0,5.0,18,0.00,,,0.00,weatherlink.com 1.10,2013-01-25 00:01:00,
2013-01-24 17:16:00,57.8,16.0,30.20,SW,214,0.0,2.0,19,0.00,,,0.00,weatherlink.com 1.10,2013-01-25 00:16:00,
2013-01-24 17:31:00,57.5,15.0,30.20,SW,218,0.0,2.0,19,0.00,,,0.00,weatherlink.com 1.10,2013-01-25 00:31:00,
2013-01-24 17:46:00,57.1,15.0,30.21,SSW,193,0.0,1.0,19,0.00,,,0.00,weatherlink.com 1.10,2013-01-25 00:46:00,
2013-01-24 18:01:00,56.8,16.0,30.21,North,4,1.0,1.0,20,0.00,,,0.00,weatherlink.com 1.10,2013-01-25 01:01:00,
2013-01-24 18:16:00,56.5,16.0,30.21,North,359,0.0,1.0,20,0.00,,,0.00,weatherlink.com 1.10,2013-01-25 01:16:00,
2013-01-24 18:31:00,55.5,17.0,30.21,NNE,13,0.0,2.0,22,0.00,,,0.00,weatherlink.com 1.10,2013-01-25 01:31:00,
2013-01-24 18:46:00,55.5,18.0,30.22,North,355,0.0,2.0,23,0.00,,,0.00,weatherlink.com 1.10,2013-01-25 01:46:00,
2013-01-24 19:01:00,55.5,18.0,30.22,NW,325,0.0,1.0,23,0.00,,,0.00,weatherlink.com 1.10,2013-01-25 02:01:00,
2013-01-24 19:16:00,55.8,26.0,30.23,NNW,343,5.0,5.0,32,0.00,,,0.00,weatherlink.com 1.10,2013-01-25 02:16:00,
2013-01-24 19:31:00,56.2,29.0,30.23,NW,325,2.0,5.0,36,0.00,,,0.00,weatherlink.com 1.10,2013-01-25 02:31:00,
2013-01-24 19:46:00,55.9,30.0,30.23,North,357,0.0,2.0,37,0.00,,,0.00,weatherlink.com 1.10,2013-01-25 02:46:00,
2013-01-24 20:01:00,55.7,31.0,30.23,NNW,335,0.0,5.0,39,0.00,,,0.00,weatherlink.com 1.10,2013-01-25 03:01:00,
2013-01-24 20:16:00,55.5,32.0,30.24,NNE,19,5.0,6.0,41,0.00,,,0.00,weatherlink.com 1.10,2013-01-25 03:16:00,
2013-01-24 20:31:00,55.2,33.0,30.24,NNW,340,1.0,5.0,43,0.00,,,0.00,weatherlink.com 1.10,2013-01-25 03:31:00,
2013-01-24 20:46:00,54.9,33.0,30.24,NW,321,2.0,8.0,44,0.00,,,0.00,weatherlink.com 1.10,2013-01-25 03:46:00,
2013-01-24 21:01:00,54.2,33.0,30.23,North,349,6.0,6.0,45,0.00,,,0.00,weatherlink.com 1.10,2013-01-25 04:01:00,
2013-01-24 21:16:00,53.6,34.0,30.23,NNW,328,1.0,6.0,47,0.00,,,0.00,weatherlink.com 1.10,2013-01-25 04:16:00,
2013-01-24 21:31:00,52.6,33.0,30.23,North,7,2.0,5.0,48,0.00,,,0.00,weatherlink.com 1.10,2013-01-25 04:31:00,
2013-01-24 21:46:00,51.9,34.0,30.23,NNW,330,0.0,3.0,50,0.00,,,0.00,weatherlink.com 1.10,2013-01-25 04:46:00,
2013-01-24 22:02:00,51.5,34.0,30.23,NNE,12,2.0,5.0,51,0.00,,,0.00,weatherlink.com 1.10,2013-01-25 05:02:00,
2013-01-24 22:16:00,50.7,33.0,30.24,NW,308,0.0,2.0,52,0.00,,,0.00,weatherlink.com 1.10,2013-01-25 05:16:00,
2013-01-24 22:31:00,50.2,34.0,30.24,North,5,0.0,3.0,54,0.00,,,0.00,weatherlink.com 1.10,2013-01-25 05:31:00,
2013-01-24 22:46:00,49.8,34.0,30.25,NNW,330,0.0,0.0,54,0.00,,,0.00,weatherlink.com 1.10,2013-01-25 05:46:00,
2013-01-24 23:01:00,48.7,33.0,30.25,NNW,330,0.0,0.0,56,0.00,,,0.00,weatherlink.com 1.10,2013-01-25 06:01:00,
2013-01-24 23:17:00,47.9,34.0,30.25,NNW,330,0.0,0.0,59,0.00,,,0.00,weatherlink.com 1.10,2013-01-25 06:17:00,
2013-01-24 23:32:00,46.3,33.0,30.24,NNW,330,0.0,0.0,60,0.00,,,0.00,weatherlink.com 1.10,2013-01-25 06:32:00,
2013-01-24 23:47:00,47.1,34.0,30.24,NNW,330,0.0,0.0,60,0.00,,,0.00,weatherlink.com 1.10,2013-01-25 06:47:00,